Current Weather Conditions: station 63103

sailwx.info

Wind from 050 at 12 knots

Wave height 1.7 meters (5 feet), 5 second period

Air temperature 7.7° C
Dewpoint -0.3° C

Last reported at 2017-Apr-28 07:00 UTC.
Time now 2017-Apr-28 08:18 UTC

Location: N 61°12' E 001°06'.
View on Google Maps.

See reports from other nearby stations

  
Tides and Currents Weather Stations Pressure Air Temp Water Temp Dewpoint Dewpoint Depression Visibility Wind Speed Wind Dir Waves Ship Positions
date/time (UTC)wind fromknots sea level pressurealtimeterstation pressurevisibilityair tempwater tempwave heightnotes
2017-Apr-28 07:00 050 12 7.7 1.7
2017-Apr-28 06:00 040 13 6.8 1.8
2017-Apr-28 05:00 050 14 6.6 1.7
2017-Apr-28 04:00 040 13 6.5 1.8
2017-Apr-28 03:00 050 14 6.6 1.7
2017-Apr-28 02:00 040 13 6.5 1.8
2017-Apr-28 01:00 040 13 6.3 1.8
2017-Apr-28 00:00 040 13 6.2 1.9
2017-Apr-27 23:00 040 14 6.3 1.8
2017-Apr-27 22:00 030 13 6.4 2.0
2017-Apr-27 21:00 040 15 6.4 1.9
2017-Apr-27 20:00 020 17 6.7 1.9
2017-Apr-27 19:00 020 19 6.3 1.9
2017-Apr-27 18:00 020 13 7.7 1.8
2017-Apr-27 17:00 020 14 6.9 1.9
2017-Apr-27 16:00 040 15 7.1 1.9
2017-Apr-27 15:00 030 15 7.5 1.9
2017-Apr-27 14:00 030 15 7.8 2.0
2017-Apr-27 13:00 030 13 8.1 2.0
2017-Apr-27 12:00 040 13 7.9 2.0
2017-Apr-27 11:00 060 13 7.8 2.1
2017-Apr-27 10:00 070 13 7.6 2.2
2017-Apr-27 09:00 040 12 7.7 2.0
2017-Apr-27 08:00 030 13 7.5 2.2
2017-Apr-27 07:00 010 13 8.5 2.2
2017-Apr-27 06:00 010 13 7.2 2.2
2017-Apr-27 05:00 020 12 6.8 2.3
2017-Apr-27 04:00 350 18 6.7 2.4
2017-Apr-27 03:00 350 20 6.6 2.4
2017-Apr-27 02:00 010 17 7.3 2.6
2017-Apr-27 01:00 350 17 6.6 2.5
2017-Apr-27 00:00 340 19 6.6 2.7
2017-Apr-26 23:00 340 19 6.7 2.5
2017-Apr-26 22:00 330 21 6.9 2.3
2017-Apr-26 21:00 320 21 6.8 2.5
2017-Apr-26 20:00 310 22 6.5 2.4
2017-Apr-26 19:00 280 19 6.6 2.3
2017-Apr-26 18:00 290 13 6.0 2.3
2017-Apr-26 17:00 300 19 5.9 2.0
2017-Apr-26 16:00 260 22 4.7 1.9
2017-Apr-26 15:00 260 19 4.5 2.1
2017-Apr-26 14:00 260 15 4.1 2.1
2017-Apr-26 13:00 270 14 4.6 2.3
2017-Apr-26 12:00 280 7 4.2 2.4
2017-Apr-26 11:00 320 11 4.7 2.6
2017-Apr-26 10:00 340 13 4.5 2.6
2017-Apr-26 09:00 330 7 3.6 3.0
2017-Apr-26 08:00 350 8 5.0 2.8